Вернуться в каталог

STARLINK-5915

АктивенСвязьVLEO
NORAD 55987·PAYLOAD·🇺🇸 United States

Запущен Mar 24, 2023 с Cape Canaveral Space Force Station

Loading…

Ближайшие Пролёты (ближайшие 24 часа)

TLE

СвежийSource: CelesTrak SupGP

Эпоха: Sep 15, 2026, 02:30 UTC

1 55987C 23042B   26258.10465278 -.00017485  00000+0 -63319-3 0  2580
2 55987  43.0035  69.9023 0001879 272.5950 241.7768 15.27592424    12

Отслеживайте STARLINK-5915 в реальном времени с AllMySat

Download on the App Store